sat.trackr.live / text

‹ back to catalog

STARLINK-5739

NORAD 55571 · 2023-020C

PAYLOAD ACTIVE UNKNOWN

§ Identity

Operator
Country
US
Launch date
2023-02-12
Launch site
AFETR
Launch vehicle
Mass (kg)
RCS (m²)

Purposes: comms

External: N2YO · Heavens-Above · Gunter

§ Orbital elements

Epoch: 2026-05-25T03:08:45.044160Z

Period
94.27 min
Inclination
43.0020°
Eccentricity
0.0000611
Mean motion
15.27580659 rev/d
Perigee alt
482.6 km
Apogee alt
483.5 km
Semi-major
6,861.2 km
B*
3.4088e-5
RAAN
296.9041°
Arg perigee
276.7071°
Mean anomaly
83.3711°
Rev number
18,056

§ Raw data

STARLINK-57391 55571U 23020C   26145.13107690  .00000676  00000+0  34088-4 0  99902 55571  43.0020 296.9041 0000611 276.7071  83.3711 15.27580659180564

JSON: /api/v1/satellites/55571 · /tle

For live sub-satellite position, see the globe view (requires WebGL).

§ Visibility from observer

Set your observer location to see the next 7 days of passes ≥ 10°. The values pass through the URL so the page stays shareable.

No JS? Fill the form by hand. The geolocation button needs JavaScript.